Station 41038 - Wrightsville Beach Nearshore, NC (ILM2) Image indicating link to RSS feed of recent meteorological observations for station 41038


Conditions at 41038 as of
(9:08 am EDT)
1308 GMT on 05/24/2024:
     

Click on the graph icon in the table below to see a time series plot of the last five days of that observation.

5-day plot - Wind Direction Wind Direction (WDIR): SW ( 230 deg true )
5-day plot - Wind Speed Wind Speed (WSPD): 5.8 kts
5-day plot - Wind Gust Wind Gust (GST): 9.7 kts
5-day plot - Atmospheric Pressure Atmospheric Pressure (PRES):29.92 in
5-day plot - Air Temperature Air Temperature (ATMP): 73.6 °F
5-day plot - Water Temperature Water Temperature (WTMP): 73.8 °F
5-day plot - Dew Point Dew Point (DEWP): 68.4 °F
5-day plot - Wind Speed at 10 Meters Wind Speed at 10 meters (WSPD10M): 7.8 kts
5-day plot - Wind Speed at 20 Meters Wind Speed at 20 meters (WSPD20M): 9.7 kts
5-day plot -  Wind Speed, Wind Gust and Atmospheric Pressure Combined plot of Wind Speed, Gust, and Air Pressure
Previous observations
TIME
(EDT)
5-day plot - Wind Direction
WDIR
 
5-day plot - Wind Speed
WSPD
kts
5-day plot - Wind Gust
GST
kts
5-day plot - Wave Height
WVHT
ft
5-day plot - Dominant Wave Period
DPD
sec
5-day plot - Average Wave Period
APD
sec
5-day plot - Mean Wave Direction
MWD
 
5-day plot - Atmospheric Pressure
PRES
in
5-day plot - Pressure Tendency
PTDY
in
5-day plot - Air Temperature
ATMP
°F
5-day plot - Water Temperature
WTMP
°F
5-day plot - Dew Point
DEWP
°F
5-day plot - Salinity
SAL
psu
5-day plot - Visibility
VIS
nmi
5-day plot - Tide (above MLLW)
TIDE
ft
2024-05-24 08:08 amWSW 5.8 7.8----29.94- 74.5 73.8 70.7---
2024-05-24 07:08 am SW 5.8 7.8----29.94- 74.1 73.8 70.3---
2024-05-24 06:08 am SW 7.8 9.7----29.92- 74.1 73.8 70.2---
2024-05-24 05:08 am SW 9.7 11.7----29.92- 73.9 73.8 70.0---
2024-05-24 04:08 am SW 9.7 11.7----29.93- 74.3 73.9 69.6---
2024-05-24 03:08 am SW 9.7 11.7----29.94- 74.5 74.1 69.4---
2024-05-24 02:08 am SW 9.7 13.6----29.95- 74.8 74.3 69.3---
2024-05-24 01:08 amSSW 9.7 13.6----29.96- 75.0 74.7 69.6---
2024-05-24 12:08 amSSW 9.7 13.6----29.97- 75.2 75.0 70.0---
2024-05-23 11:08 pmSSW 7.8 11.7----29.98- 75.2 74.5 70.3---
2024-05-23 10:08 pmSSW 9.7 11.7----29.97- 75.4 74.5 70.0---
2024-05-23 09:08 pmSSW 11.7 15.5----29.95- 75.6 75.0 69.8---
2024-05-23 08:08 pm S 9.7 13.6----29.94- 75.4 74.5 69.1---
2024-05-23 07:08 pmSSW 11.7 13.6----29.96- 75.2 73.4 69.6---
2024-05-23 06:08 pm S 11.7 13.6----29.97- 75.4 73.4 68.9---
2024-05-23 05:08 pm S 11.7 15.5----29.96- 75.4 74.7 68.9---
2024-05-23 04:08 pm S 11.7 15.5----29.97- 75.6 75.0 68.4---
2024-05-23 03:08 pm S 11.7 13.6----30.00- 75.6 74.8 68.7---
2024-05-23 02:08 pm S 11.7 15.5----30.01- 75.2 74.8 68.5---
2024-05-23 01:08 pm S 9.7 13.6----30.01- 75.7 75.2 68.5---
2024-05-23 12:08 pm S 7.8 9.7----30.02- 76.5 74.1 68.9---
2024-05-23 11:08 am S 1.9 3.9----30.05- 76.6 73.9 69.8---
2024-05-23 10:08 amSSW 3.9 3.9----30.05- 74.8 73.8 70.2---